Weather Roundup
Issued by NWS Corpus Christi, TX

Home | Current Version | Previous Version | Text Only | Print | Product List | Glossary On
Versions: 1 2 3 4 5 6 7 8 9 10 11 12 13 14 15 16 17 18 19 20 21 22 23 24 25 26 27 28 29 30 31 32 33 34 35 36 37 38 39 40 41 42 43 44 45 46 47 48 49 50
000
ASUS44 KCRP 280410
HRRCRP

SOUTH TEXAS REGIONAL WEATHER ROUNDUP
NATIONAL WEATHER SERVICE CORPUS CHRISTI TX
1100 PM CDT TUE JUN 27 2017


TXZ229>244-280500-
...CORPUS CHRISTI AREA OBSERVATIONS...

CITY           SKY/WX    TMP DP  RH WIND       PRES   REMARKS
CORPUS CHRISTI MOCLDY    83  76  79 E8        29.90R HX  91
NAS CORPUS CHR PTCLDY    83  76  79 E12       29.90R HX  91
ROCKPORT       PTCLDY    81  74  79 E13       29.90R
KINGSVILLE NAS MOCLDY    77  76  96 CALM      29.90R
ALICE          MOCLDY    77  72  84 E3        29.91R
ORANGE GROVE   CLEAR     78  75  90 E8        29.92R
FALFURRIAS     CLEAR     77  72  85 E3        29.90S
$$

...VICTORIA AREA OBSERVATIONS...

CITY           SKY/WX    TMP DP  RH WIND       PRES   REMARKS
VICTORIA       CLEAR     75  72  90 E3        29.93S
BEEVILLE       FAIR     N/A N/A N/A E5        29.93R
PLEASANTON     CLEAR     72  70  92 CALM      29.96R
SAN ANTONIO    MOCLDY    74  68  81 E6        29.97R
$$

...LAREDO AREA OBSERVATIONS...

CITY           SKY/WX    TMP DP  RH WIND       PRES   REMARKS
LAREDO         CLEAR     80  70  71 E8        29.93R
COTULLA        CLEAR     74  70  87 E8        29.94R
DEL RIO        CLEAR     79  68  69 E9        29.94R
MCALLEN        PTCLDY    82  74  76 E8        29.90R
HEBBRONVILLE   CLEAR     75  69  82 CALM      29.93S
$$

...OTHER TEXAS OBSERVATIONS...

CITY           SKY/WX    TMP DP  RH WIND       PRES   REMARKS
BROWNSVILLE    CLEAR     78  76  93 E3        29.89S
HOUSTON        PTCLDY    76  72  87 E7        29.94S
COL. STATION   CLEAR     75  73  93 SE5       29.94S
AUSTIN         CLEAR     73  71  93 S3        29.95S
WACO           CLEAR     78  72  81 S6        29.96R
FORT WORTH     PTCLDY    79  74  84 SE7       29.94R
WICHITA FALLS  CLEAR     76  66  71 SE14      29.92R
LUBBOCK        PTCLDY    78  61  55 S15       29.98R
EL PASO        PTCLDY    88  52  29 S7        29.94R
$$

...MARINE OBSERVATIONS...

STATION/POSITION TIME  SKY/WX   TEMP    WIND        PRES    VSBY  WAVE   SWELL
                                AIR SEA DIR/SP/G                  HT/PER HT/PER
                 (UTC)          (F)     (DEG/KT/KT) (MB)    (MI)  (FT/S) (FT/S)
PORT ARANSAS     0300            81 84   60/ 15/ 17 1012.2R
BUOY 90 E PORT A 0250            81 84   80/ 14/ 16 1012.3          4/ 5
BUOY 45 SE BAFFI 0250            82      90/ 12/ 14 1010.9          3/ 5   2/ 6
BUOY 200 E PT IS 0250            80 84  100/ 12/ 14 1012.7          2/ 5   2/ 7
BUOY 15 E GALVES 0250            80 82  100/ 16/ 17 1013.4          3/ 5
$$




USA.gov is the U.S. government's official web portal to all federal, state and local government web resources and services.